VOI2636 MMGL-MMMX

Flight info

Callsign VOI2636
Flight time 0h 52m
Altitude 33000
Route EMIR1B EMIRI UT119 ESPOS ESPO3A
Aircraft A320/M-ICAO/L

Departure

Time 2026-05-06 03:05
Airport Guadalajara International Airport (MMGL)

Arrival

Time 2026-05-06 03:57
Airport Mexico City Benito Juárez International Airport (MMMX)
Time Latitude Longitude Altitude Speed Heading
2026-05-06 02:21 20.52415 -103.30031 5020 ft 0 kts 17°
2026-05-06 02:52 20.52414 -103.30031 5020 ft 0 kts 17°
2026-05-06 02:55 20.52405 -103.30034 5016 ft 4 kts 17°
2026-05-06 02:55 20.52381 -103.30043 5018 ft 4 kts 19°
2026-05-06 02:56 20.52364 -103.30055 5020 ft 4 kts 86°
2026-05-06 02:56 20.52368 -103.30082 5014 ft 4 kts 109°
2026-05-06 02:56 20.52371 -103.30091 5015 ft 1 kts 108°
2026-05-06 03:00 20.52368 -103.30080 5017 ft 3 kts 108°
2026-05-06 03:00 20.52354 -103.30041 5020 ft 8 kts 121°
2026-05-06 03:01 20.52291 -103.30035 5020 ft 13 kts 194°
2026-05-06 03:01 20.52182 -103.30077 5019 ft 19 kts 200°
2026-05-06 03:01 20.52105 -103.30012 5015 ft 17 kts 108°
2026-05-06 03:01 20.52065 -103.29891 4997 ft 18 kts 112°
2026-05-06 03:02 20.52011 -103.29778 5019 ft 17 kts 131°
2026-05-06 03:02 20.51962 -103.29662 5019 ft 17 kts 107°
2026-05-06 03:02 20.51927 -103.29535 5018 ft 18 kts 108°
2026-05-06 03:02 20.51867 -103.29417 5018 ft 18 kts 127°
2026-05-06 03:03 20.51789 -103.29308 5016 ft 19 kts 127°
2026-05-06 03:03 20.51708 -103.29192 5018 ft 20 kts 127°
2026-05-06 03:03 20.51599 -103.29186 5017 ft 17 kts 201°
2026-05-06 03:03 20.51520 -103.29226 5015 ft 8 kts 205°
2026-05-06 03:04 20.51480 -103.29245 5015 ft 6 kts 202°
2026-05-06 03:04 20.51432 -103.29266 5012 ft 8 kts 202°
2026-05-06 03:04 20.51418 -103.29296 5015 ft 4 kts 310°
2026-05-06 03:04 20.51439 -103.29342 5017 ft 16 kts 293°
2026-05-06 03:05 20.51558 -103.29627 5018 ft 75 kts 294°
2026-05-06 03:05 20.51855 -103.30331 5018 ft 130 kts 294°
2026-05-06 03:05 20.52290 -103.31367 5035 ft 174 kts 294°
2026-05-06 03:05 20.52805 -103.32539 5659 ft 175 kts 292°
2026-05-06 03:06 20.53354 -103.33702 6259 ft 177 kts 295°
2026-05-06 03:06 20.53918 -103.34904 6720 ft 190 kts 294°
2026-05-06 03:06 20.54496 -103.36265 6989 ft 213 kts 293°
2026-05-06 03:06 20.55118 -103.37779 7377 ft 230 kts 293°
2026-05-06 03:07 20.55766 -103.39368 8066 ft 236 kts 293°
2026-05-06 03:07 20.56349 -103.41039 8638 ft 247 kts 279°
2026-05-06 03:07 20.56264 -103.42889 9077 ft 260 kts 253°
2026-05-06 03:07 20.55241 -103.44553 9318 ft 283 kts 220°
2026-05-06 03:08 20.53421 -103.45405 9822 ft 295 kts 188°
2026-05-06 03:08 20.51343 -103.45131 10152 ft 316 kts 159°
2026-05-06 03:08 20.49466 -103.43802 10565 ft 328 kts 139°
2026-05-06 03:08 20.47931 -103.42015 11371 ft 325 kts 131°
2026-05-06 03:09 20.46582 -103.40104 12163 ft 321 kts 128°
2026-05-06 03:09 20.45290 -103.38178 12913 ft 318 kts 128°
2026-05-06 03:09 20.43983 -103.36283 13589 ft 317 kts 129°
2026-05-06 03:09 20.42631 -103.34419 14185 ft 318 kts 130°
2026-05-06 03:10 20.41255 -103.32602 14683 ft 320 kts 131°
2026-05-06 03:10 20.39827 -103.30774 15174 ft 323 kts 132°
2026-05-06 03:10 20.38367 -103.28937 15460 ft 326 kts 133°
2026-05-06 03:10 20.36884 -103.27084 15943 ft 330 kts 133°
2026-05-06 03:11 20.35387 -103.25215 16460 ft 333 kts 133°
2026-05-06 03:11 20.33880 -103.23330 16964 ft 335 kts 133°
2026-05-06 03:11 20.32362 -103.21425 17422 ft 339 kts 133°
2026-05-06 03:11 20.30828 -103.19498 17896 ft 343 kts 133°
2026-05-06 03:12 20.29284 -103.17556 18414 ft 344 kts 133°
2026-05-06 03:12 20.27738 -103.15611 18926 ft 344 kts 133°
2026-05-06 03:12 20.26188 -103.13667 19405 ft 345 kts 133°
2026-05-06 03:12 20.24635 -103.11722 19920 ft 345 kts 133°
2026-05-06 03:13 20.23083 -103.09771 20455 ft 345 kts 133°
2026-05-06 03:13 20.21531 -103.07815 20926 ft 347 kts 133°
2026-05-06 03:13 20.19972 -103.05853 21365 ft 348 kts 133°
2026-05-06 03:13 20.18386 -103.03861 21579 ft 358 kts 133°
2026-05-06 03:14 20.16750 -103.01807 21706 ft 369 kts 133°
2026-05-06 03:14 20.15062 -102.99689 21832 ft 381 kts 133°
2026-05-06 03:14 20.13321 -102.97510 21967 ft 392 kts 133°
2026-05-06 03:14 20.11550 -102.95297 22101 ft 403 kts 133°
2026-05-06 03:15 20.09713 -102.93001 22265 ft 412 kts 133°
2026-05-06 03:15 20.07846 -102.90665 22526 ft 416 kts 133°
2026-05-06 03:15 20.05967 -102.88308 22850 ft 419 kts 133°
2026-05-06 03:15 20.04081 -102.85943 23195 ft 421 kts 133°
2026-05-06 03:16 20.02177 -102.83561 23520 ft 423 kts 133°
2026-05-06 03:16 20.00268 -102.81176 23812 ft 425 kts 133°
2026-05-06 03:16 19.98350 -102.78778 24083 ft 426 kts 133°
2026-05-06 03:16 19.96424 -102.76369 24335 ft 428 kts 133°
2026-05-06 03:17 19.94488 -102.73946 24556 ft 432 kts 133°
2026-05-06 03:17 19.92539 -102.71509 24792 ft 434 kts 133°
2026-05-06 03:17 19.90573 -102.69055 25033 ft 437 kts 133°
2026-05-06 03:17 19.88600 -102.66597 25272 ft 439 kts 133°
2026-05-06 03:18 19.86614 -102.64123 25510 ft 441 kts 133°
2026-05-06 03:18 19.84619 -102.61637 25747 ft 443 kts 133°
2026-05-06 03:18 19.82619 -102.59138 25980 ft 446 kts 131°
2026-05-06 03:18 19.80811 -102.56432 26212 ft 451 kts 123°
2026-05-06 03:19 19.79381 -102.53444 26436 ft 457 kts 115°
2026-05-06 03:19 19.78192 -102.50307 26683 ft 459 kts 115°
2026-05-06 03:19 19.76992 -102.47157 27031 ft 458 kts 115°
2026-05-06 03:19 19.75791 -102.44027 27385 ft 458 kts 115°
2026-05-06 03:20 19.73371 -102.37753 28054 ft 459 kts 115°
2026-05-06 03:20 19.72161 -102.34616 28415 ft 460 kts 115°
2026-05-06 03:20 19.70952 -102.31475 28798 ft 460 kts 115°
2026-05-06 03:21 19.69743 -102.28330 29166 ft 460 kts 115°
2026-05-06 03:21 19.68552 -102.25227 29535 ft 460 kts 115°
2026-05-06 03:21 19.67347 -102.22084 29901 ft 460 kts 115°
2026-05-06 03:21 19.66139 -102.18939 30233 ft 461 kts 115°
2026-05-06 03:22 19.64928 -102.15789 30552 ft 461 kts 115°
2026-05-06 03:22 19.63715 -102.12641 30850 ft 461 kts 115°
2026-05-06 03:22 19.62500 -102.09493 31183 ft 461 kts 115°
2026-05-06 03:22 19.61284 -102.06344 31528 ft 461 kts 115°
2026-05-06 03:23 19.60071 -102.03199 31847 ft 461 kts 115°
2026-05-06 03:23 19.58855 -102.00053 32201 ft 461 kts 115°
2026-05-06 03:23 19.57638 -101.96910 32556 ft 461 kts 115°
2026-05-06 03:23 19.56420 -101.93770 32894 ft 461 kts 115°
2026-05-06 03:24 19.54382 -101.88518 33021 ft 468 kts 114°
2026-05-06 03:24 19.51874 -101.82051 33009 ft 478 kts 114°
2026-05-06 03:25 19.49342 -101.75515 33016 ft 480 kts 114°
2026-05-06 03:25 19.46805 -101.68970 33015 ft 480 kts 114°
2026-05-06 03:26 19.44266 -101.62444 33012 ft 479 kts 114°
2026-05-06 03:26 19.41726 -101.55930 32987 ft 479 kts 114°
2026-05-06 03:27 19.39174 -101.49402 32981 ft 479 kts 114°
2026-05-06 03:27 19.36646 -101.42921 32968 ft 479 kts 114°
2026-05-06 03:28 19.34100 -101.36391 32970 ft 479 kts 114°
2026-05-06 03:28 19.31546 -101.29859 32952 ft 479 kts 114°
2026-05-06 03:29 19.28980 -101.23343 32920 ft 480 kts 115°
2026-05-06 03:29 19.26415 -101.16830 32924 ft 480 kts 114°
2026-05-06 03:30 19.23860 -101.10308 32930 ft 479 kts 114°
2026-05-06 03:30 19.21301 -101.03852 32930 ft 476 kts 118°
2026-05-06 03:31 19.19551 -101.00962 32905 ft 461 kts 134°
2026-05-06 03:31 19.17157 -100.98773 32877 ft 452 kts 151°
2026-05-06 03:31 19.14314 -100.97434 32879 ft 446 kts 168°
2026-05-06 03:31 19.11276 -100.96842 32877 ft 444 kts 174°
2026-05-06 03:32 19.05147 -100.95953 32860 ft 444 kts 174°
2026-05-06 03:32 18.99022 -100.95085 32861 ft 444 kts 174°
2026-05-06 03:33 18.92890 -100.94217 32848 ft 445 kts 174°
2026-05-06 03:33 18.86751 -100.93348 32853 ft 445 kts 174°
2026-05-06 03:34 18.80656 -100.92485 32854 ft 445 kts 174°
2026-05-06 03:34 18.74519 -100.91620 32847 ft 445 kts 174°
2026-05-06 03:35 18.68537 -100.89743 32843 ft 462 kts 149°
2026-05-06 03:35 18.66048 -100.87575 32835 ft 469 kts 133°
2026-05-06 03:35 18.64240 -100.84704 32824 ft 475 kts 116°
2026-05-06 03:36 18.63285 -100.81367 32822 ft 479 kts 98°
2026-05-06 03:36 18.63265 -100.77851 32831 ft 483 kts 85°
2026-05-06 03:36 18.64001 -100.70792 32830 ft 484 kts 84°
2026-05-06 03:37 18.64767 -100.63729 32829 ft 485 kts 84°
2026-05-06 03:37 18.65522 -100.56697 32842 ft 485 kts 85°
2026-05-06 03:38 18.66258 -100.49628 32845 ft 485 kts 85°
2026-05-06 03:38 18.66986 -100.42557 32844 ft 485 kts 85°
2026-05-06 03:39 18.67713 -100.35487 32853 ft 485 kts 85°
2026-05-06 03:39 18.68445 -100.28407 32852 ft 485 kts 85°
2026-05-06 03:40 18.69179 -100.21325 32879 ft 485 kts 85°
2026-05-06 03:40 18.69897 -100.14297 32878 ft 485 kts 85°
2026-05-06 03:41 18.70610 -100.07234 32786 ft 482 kts 85°
2026-05-06 03:41 18.70969 -100.03676 32006 ft 482 kts 85°
2026-05-06 03:41 18.71320 -100.00210 31213 ft 482 kts 85°
2026-05-06 03:42 18.71674 -99.96697 30466 ft 482 kts 86°
2026-05-06 03:42 18.72026 -99.93189 29667 ft 481 kts 86°
2026-05-06 03:42 18.72379 -99.89669 29144 ft 480 kts 86°
2026-05-06 03:42 18.72763 -99.85951 28917 ft 482 kts 84°
2026-05-06 03:43 18.74505 -99.79343 28959 ft 487 kts 68°
2026-05-06 03:43 18.77270 -99.72820 28975 ft 487 kts 68°
2026-05-06 03:44 18.80048 -99.66297 28952 ft 487 kts 68°
2026-05-06 03:44 18.82816 -99.59798 28200 ft 483 kts 68°
2026-05-06 03:45 18.84194 -99.56551 27122 ft 485 kts 68°
2026-05-06 03:45 18.85550 -99.53344 26021 ft 482 kts 68°
2026-05-06 03:45 18.86895 -99.50166 25227 ft 465 kts 68°
2026-05-06 03:45 18.88195 -99.47096 24376 ft 452 kts 68°
2026-05-06 03:46 18.89465 -99.44096 23414 ft 443 kts 68°
2026-05-06 03:46 18.90706 -99.41156 22305 ft 434 kts 68°
2026-05-06 03:46 18.91922 -99.38274 21038 ft 428 kts 67°
2026-05-06 03:46 18.93132 -99.35403 19593 ft 428 kts 67°
2026-05-06 03:47 18.94332 -99.32552 18647 ft 418 kts 67°
2026-05-06 03:47 18.95457 -99.29799 18169 ft 397 kts 71°
2026-05-06 03:47 18.96310 -99.27127 17905 ft 371 kts 66°
2026-05-06 03:47 18.97726 -99.25022 17747 ft 347 kts 46°
2026-05-06 03:48 18.99392 -99.23287 17613 ft 324 kts 47°
2026-05-06 03:48 19.00887 -99.21638 17631 ft 299 kts 49°
2026-05-06 03:48 19.02234 -99.20073 17608 ft 278 kts 50°
2026-05-06 03:48 19.03495 -99.18561 17290 ft 271 kts 50°
2026-05-06 03:49 19.04723 -99.17064 16830 ft 269 kts 51°
2026-05-06 03:49 19.05941 -99.15576 16355 ft 267 kts 51°
2026-05-06 03:49 19.07152 -99.14100 15882 ft 265 kts 51°
2026-05-06 03:49 19.08357 -99.12633 15422 ft 264 kts 50°
2026-05-06 03:50 19.09542 -99.11194 15017 ft 262 kts 50°
2026-05-06 03:50 19.10735 -99.09748 14598 ft 260 kts 50°
2026-05-06 03:50 19.11922 -99.08311 14188 ft 259 kts 51°
2026-05-06 03:50 19.13099 -99.06880 13757 ft 258 kts 50°
2026-05-06 03:51 19.14279 -99.05449 13294 ft 257 kts 51°
2026-05-06 03:51 19.15452 -99.04029 12837 ft 256 kts 49°
2026-05-06 03:51 19.16895 -99.02954 12394 ft 257 kts 18°
2026-05-06 03:51 19.18662 -99.02816 12337 ft 261 kts 348°
2026-05-06 03:52 19.20290 -99.03666 12369 ft 266 kts 318°
2026-05-06 03:52 19.21628 -99.05027 12382 ft 267 kts 316°
2026-05-06 03:52 19.22969 -99.06396 12400 ft 269 kts 316°
2026-05-06 03:52 19.24275 -99.07809 12411 ft 268 kts 313°
2026-05-06 03:53 19.25486 -99.09252 12202 ft 265 kts 312°
2026-05-06 03:53 19.26694 -99.10718 11975 ft 263 kts 311°
2026-05-06 03:53 19.27884 -99.12173 11731 ft 261 kts 311°
2026-05-06 03:53 19.29067 -99.13621 11480 ft 259 kts 311°
2026-05-06 03:54 19.30245 -99.15061 11263 ft 256 kts 312°
2026-05-06 03:54 19.31383 -99.16438 11134 ft 241 kts 316°
2026-05-06 03:54 19.32706 -99.17413 10878 ft 228 kts 339°
2026-05-06 03:54 19.34238 -99.17717 10451 ft 224 kts
2026-05-06 03:55 19.35777 -99.17527 9986 ft 223 kts 14°
2026-05-06 03:55 19.37212 -99.16937 9534 ft 221 kts 30°
2026-05-06 03:55 19.38417 -99.15951 9215 ft 220 kts 47°
2026-05-06 03:55 19.39304 -99.14692 8892 ft 209 kts 59°
2026-05-06 03:56 19.40014 -99.13404 8652 ft 192 kts 60°
2026-05-06 03:56 19.40672 -99.12210 8409 ft 180 kts 59°
2026-05-06 03:56 19.41286 -99.11112 8093 ft 172 kts 58°
2026-05-06 03:56 19.41885 -99.10043 7794 ft 167 kts 57°
2026-05-06 03:57 19.42471 -99.08997 7532 ft 165 kts 57°
2026-05-06 03:57 19.43049 -99.07964 7306 ft 155 kts 57°
2026-05-06 03:57 19.43461 -99.07227 7301 ft 63 kts 59°
2026-05-06 03:57 19.43599 -99.07017 7302 ft 5 kts 358°
2026-05-06 03:58 19.43633 -99.07041 7302 ft 8 kts 312°
2026-05-06 03:58 19.43694 -99.07103 7302 ft 17 kts 319°
2026-05-06 03:58 19.43734 -99.07138 7303 ft 0 kts 317°
2026-05-06 03:59 19.43740 -99.07144 7303 ft 5 kts 317°
2026-05-06 03:59 19.43786 -99.07189 7303 ft 10 kts 317°
2026-05-06 04:00 19.43841 -99.07242 7303 ft 11 kts 317°
2026-05-06 04:00 19.43860 -99.07260 7303 ft 0 kts 318°
2026-05-06 04:00 19.43865 -99.07266 7303 ft 5 kts 310°
2026-05-06 04:00 19.43843 -99.07341 7303 ft 18 kts 244°
2026-05-06 04:01 19.43767 -99.07485 7302 ft 24 kts 240°
2026-05-06 04:01 19.43680 -99.07642 7302 ft 25 kts 239°
2026-05-06 04:01 19.43592 -99.07798 7302 ft 25 kts 238°
2026-05-06 04:01 19.43503 -99.07959 7303 ft 22 kts 239°
2026-05-06 04:02 19.43424 -99.08100 7302 ft 23 kts 240°
2026-05-06 04:02 19.43347 -99.08236 7302 ft 16 kts 241°
2026-05-06 04:02 19.43308 -99.08309 7302 ft 0 kts 239°
2026-05-06 04:02 19.43304 -99.08315 7302 ft 2 kts 239°
2026-05-06 04:03 19.43299 -99.08338 7302 ft 6 kts 271°
2026-05-06 04:03 19.43329 -99.08361 7302 ft 4 kts 333°
2026-05-06 04:03 19.43355 -99.08378 7302 ft 4 kts 330°
2026-05-06 04:03 19.43367 -99.08386 7302 ft 0 kts 328°